[[{"header":{"parameterUnit":"m.s-1","parameterCategory":1,"la1":30.2992,"la2":30.254,"lo1":-89.0895,"lo2":-89.0443,"dy":0.0025,"dx":0.0025,"nx":19,"ny":19,"refTime":"2026-05-08T03:00:00:Z","depth":0,"parameterNumber":2,"parameterNumberName":"U-component_of_WINDS"},"data":[0,0,0,-0.455,-0.4551,-0.4604,-0.4604,-0.467,-0.4671,0,0,0,0,0,0,0,0,0,0,0,-0.4534,-0.4535,-0.455,-0.4551,-0.4604,-0.4604,-0.467,-0.4671,0,0,0,0,0,0,0,0,0,0,0,-0.4534,-0.4534,-0.4535,-0.4552,-0.4604,-0.4604,-0.467,-0.4631,0,0,0,0,0,0,0,0,0,0,-0.458,-0.4564,-0.4534,-0.4535,-0.4552,-0.4604,-0.4604,-0.4629,-0.4633,-0.4646,0,-0.4657,0,-0.4665,-0.4675,-0.4675,0,0,0,-0.4552,-0.4561,-0.4575,-0.4535,-0.4552,-0.4604,-0.458,-0.4631,-0.4636,-0.4651,-0.4658,-0.4661,-0.4666,-0.4675,-0.4676,-0.475,-0.475,0,0,-0.4549,-0.4543,-0.4572,-0.4579,-0.4571,-0.4579,-0.4582,-0.4634,-0.4641,-0.4658,-0.4662,-0.4667,-0.4676,-0.4676,-0.475,-0.475,0,0,0,-0.454,-0.4541,-0.4555,-0.4576,-0.4585,-0.458,-0.4584,-0.4639,-0.4643,-0.4663,-0.4668,-0.4676,-0.4677,-0.4749,-0.475,-0.4761,0,0,0,-0.4539,-0.4536,-0.4553,-0.455,-0.4585,-0.4613,-0.4587,-0.464,-0.4646,-0.4668,-0.4676,-0.4678,-0.4749,-0.475,-0.476,-0.4768,0,0,0,-0.4531,-0.4535,-0.4543,-0.455,-0.4572,-0.4612,-0.462,-0.4641,-0.4649,-0.4675,-0.4678,-0.4749,-0.475,-0.4759,-0.4766,-0.4786,0,0,0,-0.4521,-0.4551,-0.4543,-0.4579,-0.4572,-0.4619,-0.462,-0.4655,-0.4679,-0.4677,-0.4749,-0.475,-0.4759,-0.4765,-0.4785,-0.4802,-0.4809,0,0,-0.4556,-0.4555,-0.4577,-0.4571,-0.4618,-0.4611,-0.466,-0.4687,-0.4694,-0.4731,-0.4733,-0.4761,-0.4766,-0.4786,-0.4847,-0.4852,0,0,0,-0.4587,-0.4602,-0.4616,-0.4639,-0.4661,-0.468,-0.4701,-0.4711,-0.4742,-0.4712,-0.4773,-0.4777,-0.4789,-0.4797,-0.4801,-0.4812,-0.4753,-0.4753,-0.4753,-0.4628,-0.4637,-0.4674,-0.4689,-0.4712,-0.4733,-0.4751,-0.4769,-0.477,-0.4784,-0.4795,-0.4831,-0.4841,-0.4844,-0.4856,-0.4805,-0.4805,-0.4805,-0.4805,-0.4681,-0.4705,-0.4708,-0.4744,-0.4753,-0.4784,-0.4806,-0.4806,-0.4836,-0.4824,-0.4834,-0.482,-0.485,-0.486,-0.4806,-0.4806,-0.4806,-0.4806,-0.4805,-0.471,-0.4723,-0.4735,-0.477,-0.4796,-0.481,-0.4839,-0.4846,-0.4853,-0.4863,-0.4876,-0.4876,-0.4877,-0.4869,-0.4869,-0.4869,-0.4869,-0.4869,-0.487,-0.4734,-0.4748,-0.4772,-0.4799,-0.4815,-0.4837,-0.4859,-0.4875,-0.4895,-0.4898,-0.4898,-0.4898,-0.4851,-0.4839,-0.4872,-0.4871,-0.4871,-0.4871,-0.4871,-0.4785,-0.4775,-0.4812,-0.4828,-0.4861,-0.4887,-0.4895,-0.4928,-0.4942,-0.4956,-0.4954,-0.4919,-0.4918,-0.4914,-0.4905,-0.4952,-0.4952,-0.4952,-0.4952,-0.4809,-0.481,-0.485,-0.4876,-0.4902,-0.4914,-0.4956,-0.4974,-0.4991,-0.5,-0.4994,-0.4982,-0.4978,-0.498,-0.4975,-0.4966,-0.5028,-0.5028,-0.5028,-0.4841,-0.4844,-0.4879,-0.4896,-0.4922,-0.4945,-0.4985,-0.5014,-0.5031,-0.5031,-0.5008,-0.5004,-0.4985,-0.4978,-0.4977,-0.4969,-0.4953,0,0]},{"header":{"parameterUnit":"m.s-1","parameterCategory":1,"la1":30.2992,"la2":30.254,"lo1":-89.0895,"lo2":-89.0443,"dy":0.0025,"dx":0.0025,"nx":19,"ny":19,"refTime":"2026-05-08T03:00:00:Z","depth":0,"parameterNumber":3,"parameterNumberName":"V-component_of_WINDS"},"data":[0,0,0,-1.6122,-1.6123,-1.6183,-1.6183,-1.6252,-1.6253,0,0,0,0,0,0,0,0,0,0,0,-1.6102,-1.6102,-1.6122,-1.6123,-1.6183,-1.6183,-1.6252,-1.6253,0,0,0,0,0,0,0,0,0,0,0,-1.6102,-1.6102,-1.6103,-1.6124,-1.6183,-1.6183,-1.6252,-1.6209,0,0,0,0,0,0,0,0,0,0,-1.6153,-1.6132,-1.6102,-1.6103,-1.6124,-1.6183,-1.6183,-1.6207,-1.6212,-1.6223,0,-1.6234,0,-1.6245,-1.6257,-1.6258,0,0,0,-1.6125,-1.6128,-1.6146,-1.6103,-1.6125,-1.6182,-1.6156,-1.621,-1.6215,-1.6229,-1.6235,-1.6237,-1.6246,-1.6258,-1.6258,-1.6324,-1.6324,0,0,-1.6122,-1.611,-1.6143,-1.615,-1.6142,-1.6154,-1.6158,-1.6213,-1.6218,-1.6235,-1.6239,-1.6247,-1.6258,-1.6259,-1.6323,-1.6324,0,0,0,-1.6111,-1.6108,-1.6126,-1.6147,-1.6158,-1.6156,-1.616,-1.6215,-1.6222,-1.624,-1.6248,-1.6259,-1.6259,-1.6323,-1.6323,-1.6327,0,0,0,-1.6109,-1.6102,-1.6124,-1.6118,-1.6157,-1.6188,-1.6161,-1.6218,-1.6225,-1.6247,-1.6259,-1.626,-1.6323,-1.6323,-1.6326,-1.633,0,0,0,-1.6099,-1.6101,-1.6109,-1.6117,-1.6142,-1.6187,-1.6197,-1.622,-1.6229,-1.6258,-1.626,-1.6323,-1.6323,-1.6326,-1.6329,-1.6346,0,0,0,-1.6084,-1.6108,-1.6109,-1.6139,-1.6142,-1.6189,-1.6197,-1.6231,-1.6256,-1.6259,-1.6323,-1.6323,-1.6325,-1.6328,-1.6346,-1.636,-1.6364,0,0,-1.6108,-1.611,-1.6129,-1.6132,-1.6176,-1.618,-1.6225,-1.6256,-1.6267,-1.6304,-1.6306,-1.6326,-1.6329,-1.6346,-1.6391,-1.6395,0,0,0,-1.6133,-1.6147,-1.6161,-1.6185,-1.6212,-1.6235,-1.6262,-1.6274,-1.6306,-1.6285,-1.6336,-1.6338,-1.6349,-1.6356,-1.6359,-1.637,-1.6326,-1.6326,-1.6326,-1.615,-1.6167,-1.62,-1.6224,-1.6248,-1.6277,-1.6297,-1.6318,-1.6325,-1.6337,-1.6348,-1.6374,-1.6382,-1.6385,-1.6396,-1.6356,-1.6356,-1.6356,-1.6356,-1.6189,-1.6212,-1.6224,-1.6261,-1.6278,-1.6308,-1.6337,-1.6342,-1.6373,-1.6366,-1.6376,-1.6369,-1.6388,-1.6399,-1.6356,-1.6356,-1.6356,-1.6356,-1.6356,-1.6203,-1.6217,-1.6234,-1.6274,-1.6302,-1.6325,-1.6355,-1.6368,-1.638,-1.639,-1.6405,-1.6405,-1.6409,-1.6397,-1.6397,-1.6397,-1.6397,-1.6397,-1.6397,-1.6212,-1.6231,-1.6256,-1.6289,-1.6309,-1.6335,-1.6367,-1.6385,-1.641,-1.6417,-1.6417,-1.6424,-1.6387,-1.6378,-1.6398,-1.6398,-1.6398,-1.6398,-1.6398,-1.6247,-1.6242,-1.6281,-1.6301,-1.6343,-1.6372,-1.6389,-1.6427,-1.6445,-1.646,-1.6465,-1.6435,-1.6437,-1.6435,-1.6428,-1.6461,-1.6461,-1.6461,-1.6461,-1.626,-1.6264,-1.6309,-1.6341,-1.6372,-1.6394,-1.6438,-1.6464,-1.6488,-1.65,-1.6497,-1.6489,-1.6486,-1.649,-1.6487,-1.6481,-1.6526,-1.6526,-1.6526,-1.6284,-1.6292,-1.6327,-1.6355,-1.6389,-1.6419,-1.6462,-1.6497,-1.6523,-1.6529,-1.6511,-1.6508,-1.6494,-1.6489,-1.6493,-1.6488,-1.6477,0,0]}]]